STARLINK-33802 (64392 NORAD) Tracking and Keplerian Element Data

This shows tracking and keplerian element data for the satellite.

Feedback or suggestion? Click here.




ElementValue
Catalog64392
NameSTARLINK-33802
Epoch Orbit3034
Epoch Day354.11704987
Epoch Year2025
RAAN269.5034
Inclination43.0021
Eccentricity0.000204
Argument of Perigee264.8035
Mean Anonmoly95.2584
Mean Motion15.27610487
Decay Rate0.00023206
L11 64392U 25127Y 25354.11704987 .00023206 00000+0 84935-3 0 9991
L22 64392 43.0021 269.5034 0002040 264.8035 95.2584 15.27610487 30343



Live tracking and technical data element details for STARLINK-33802 (NORAD 64392). STARLINK-33802 can be tracked NOW for your location showing map with azimuth and elevation plus other details from your city location.







IsCatalogInMostPopularTable: catalog: 64392, numindb: 8
Update: records affected: 1



GetName: 64392 STARLINK-33802

Hit Count: updated at: Mon, 20 Apr 2026 09:19:44 GMT